JP7FSO Weather Reports


time (UTC)temp
C
wind
direction
speed
KPH
gust
KPH
rain 1hr
cm
rain 24hr
cm
rain mn
cm
humidity
%
barometer
mb
20260904133014 21 257 0.0 0.0 0.00 0.00 0.00 75 1004.7
20260904131527 21 257 0.0 0.0 0.00 0.00 0.00 74 1004.6
20260904130012 21 257 0.0 0.0 0.00 0.00 0.00 73 1004.7
20260904124524 21 257 0.0 0.0 0.00 0.00 0.00 73 1004.7
20260904123018 21 257 0.0 0.0 0.00 0.00 0.00 72 1004.7
20260904121557 21 257 0.0 0.0 0.00 0.00 0.00 72 1004.7
20260904120020 21 287 0.0 0.0 0.00 0.00 0.00 72 1005.0
20260904113057 21 283 0.0 0.0 0.00 0.00 0.00 71 1005.2
20260904110014 22 283 0.0 0.0 0.00 0.00 0.00 68 1004.8
20260904103022 22 283 0.0 0.0 0.00 0.00 0.00 65 1004.6
20260904101506 22 283 0.0 0.0 0.00 0.00 0.00 64 1004.6
20260904100020 22 286 0.0 0.0 0.00 0.00 0.00 64 1004.6
20260904094611 22 270 0.0 0.0 0.00 0.00 0.00 64 1004.2
20260904093117 23 264 0.0 0.0 0.00 0.00 0.00 63 1004.2
20260904091509 23 266 0.0 0.0 0.00 0.00 0.00 62 1004.1
20260904090057 23 266 0.0 0.0 0.00 0.00 0.00 62 1004.1
20260904084512 23 260 0.0 0.0 0.00 0.00 0.00 61 1003.7
20260904083105 24 266 0.0 0.0 0.00 0.00 0.00 60 1003.5
20260904081508 24 271 0.0 0.0 0.00 0.00 0.00 58 1003.4
20260904080010 25 266 0.0 0.0 0.00 0.00 0.00 57 1003.1
20260904074522 25 266 0.0 0.0 0.00 0.00 0.00 56 1003.2
20260904073025 25 266 0.0 0.0 0.00 0.00 0.00 55 1003.6
20260904071525 25 297 0.0 0.0 0.00 0.00 0.00 53 1003.2
20260904070010 25 267 0.0 0.0 0.00 0.00 0.00 53 1003.0
20260904064528 26 265 0.0 0.0 0.00 0.00 0.00 54 1002.5
20260904063008 26 275 0.0 0.0 0.00 0.00 0.00 53 1002.6
20260904061601 26 245 0.0 0.0 0.00 0.00 0.00 56 1003.0
20260904060044 26 255 0.0 0.0 0.00 0.00 0.00 54 1002.8
20260904054536 26 269 0.0 0.0 0.00 0.00 0.00 54 1002.6
20260904053102 27 253 0.0 0.0 0.00 0.00 0.00 53 1002.5
20260904051614 27 257 0.0 0.0 0.00 0.00 0.00 52 1002.6
20260904050015 27 229 0.0 0.0 0.00 0.00 0.00 51 1002.6
20260904044518 27 171 0.0 0.0 0.00 0.00 0.00 51 1002.8
20260904041516 26 217 0.0 0.0 0.00 0.00 0.00 55 1002.2
20260904034520 26 217 0.0 0.0 0.00 0.00 0.00 53 1002.8
20260904033023 26 277 0.0 0.0 0.00 0.00 0.00 52 1002.9
20260904031508 26 276 0.0 0.0 0.00 0.00 0.00 51 1003.0
20260904030009 26 229 1.6 0.0 0.00 0.00 0.00 51 1003.0
20260904024507 26 269 0.0 0.0 0.00 0.00 0.00 53 1003.1
20260904023059 26 198 0.0 0.0 0.00 0.00 0.00 55 1003.4
20260904021600 26 284 1.6 0.0 0.00 0.00 0.00 54 1003.3
20260904020022 26 262 1.6 0.0 0.00 0.00 0.00 54 1003.5
20260904014621 26 259 1.6 0.0 0.00 0.00 0.00 56 1003.6
20260904013005 25 205 1.6 0.0 0.00 0.00 0.00 59 1003.8
20260904010113 25 260 1.6 0.0 0.00 0.00 0.00 60 1004.2
20260904004611 24 278 1.6 0.0 0.00 0.00 0.00 62 1004.4
20260904003021 24 259 1.6 0.0 0.00 0.00 0.00 64 1004.5
20260903233026 22 269 0.0 0.0 0.00 0.00 0.00 85 1004.0
20260903231505 22 269 0.0 0.0 0.00 0.00 0.00 86 1004.1
20260903230004 22 153 0.0 0.0 0.00 0.00 0.00 88 1004.0
20260903224506 21 207 0.0 0.0 0.00 0.00 0.00 88 1004.0
20260903223022 21 235 0.0 0.0 0.00 0.00 0.00 88 1003.8
20260903221509 21 235 0.0 0.0 0.00 0.00 0.00 88 1004.0
20260903220018 21 235 0.0 0.0 0.00 0.00 0.00 87 1003.7
20260903214519 21 235 0.0 0.0 0.00 0.00 0.00 87 1003.6
20260903213029 21 235 0.0 0.0 0.00 0.00 0.00 86 1003.7
20260903211513 21 235 0.0 0.0 0.00 0.00 0.00 85 1003.6
20260903204523 21 235 0.0 0.0 0.00 0.00 0.00 84 1003.2
20260903203039 21 235 0.0 0.0 0.00 0.00 0.00 83 1003.2
20260903200012 21 266 0.0 0.0 0.00 0.00 0.00 85 1002.6
20260903194508 21 282 0.0 0.0 0.00 0.00 0.00 86 1002.5
20260903193022 21 297 0.0 0.0 0.00 0.00 0.00 87 1002.4
20260903191528 21 274 1.6 0.0 0.00 0.00 0.00 89 1002.4
20260903190111 21 270 0.0 0.0 0.00 0.00 0.00 91 1002.1
20260903184514 20 283 0.0 0.0 0.00 0.00 0.00 93 1002.1
20260903183021 20 290 0.0 0.0 0.00 0.00 0.00 94 1002.1
20260903181509 20 283 0.0 0.0 0.00 0.00 0.00 95 1002.0
20260903180017 20 276 0.0 0.0 0.00 0.00 0.00 96 1002.0
20260903174512 20 272 0.0 0.0 0.00 0.00 0.00 96 1001.7
20260903173009 20 269 0.0 0.0 0.00 0.00 0.00 97 1001.7
20260903171520 20 271 0.0 0.0 0.00 0.00 0.00 97 1001.5
20260903170031 20 285 0.0 0.0 0.00 0.00 0.00 97 1001.5
20260903164511 20 119 0.0 0.0 0.00 0.00 0.00 97 1001.5
20260903163016 20 295 0.0 0.0 0.00 0.00 0.00 97 1001.5
20260903160020 20 80 0.0 0.0 0.00 0.00 0.00 97 1001.3
20260903154600 20 80 0.0 0.0 0.00 0.00 0.00 97 1001.3
20260903153020 20 276 0.0 0.0 0.00 0.00 0.00 97 1001.5
20260903151529 21 274 0.0 0.0 0.00 0.00 0.00 96 1001.5
20260903150022 21 168 0.0 0.0 0.00 0.00 1.75 96 1001.4
20260903144504 21 261 0.0 0.0 0.00 0.00 1.75 96 1001.0
20260903143014 21 290 0.0 0.0 0.00 0.00 1.75 96 1001.0
20260903140059 21 103 0.0 0.0 0.00 0.00 1.75 96 1001.1